| time (UTC) | temp C | wind direction | speed KPH | gust KPH | rain 1hr cm | rain 24hr cm | rain mn cm | humidity % | barometer mb |
| 20260505124515 | 19 | 277 | 4.8 | 16.1 | 0.00 | 0.00 | 0.00 | 60 | 1011.8 |
| 20260505123010 | 18 | 197 | 3.2 | 11.3 | 0.00 | 0.00 | 0.00 | 62 | 1011.6 |
| 20260505121512 | 18 | 263 | 6.4 | 19.3 | 0.00 | 0.00 | 0.00 | 64 | 1011.6 |
| 20260505120010 | 18 | 175 | 1.6 | 12.9 | 0.00 | 0.00 | 0.00 | 65 | 1011.6 |
| 20260505114510 | 17 | 273 | 1.6 | 12.9 | 0.00 | 0.00 | 0.00 | 67 | 1011.5 |
| 20260505113015 | 17 | 229 | 1.6 | 8.0 | 0.00 | 0.00 | 0.00 | 68 | 1011.3 |
| 20260505111518 | 16 | 194 | 0.0 | 4.8 | 0.00 | 0.00 | 0.00 | 70 | 1011.2 |
| 20260505101519 | 15 | 267 | 0.0 | 6.4 | 0.00 | 0.00 | 0.00 | 73 | 1011.1 |
| 20260505100016 | 15 | 270 | 1.6 | 9.7 | 0.00 | 0.00 | 0.00 | 74 | 1010.9 |
| 20260505094516 | 15 | 269 | 3.2 | 9.7 | 0.00 | 0.00 | 0.00 | 75 | 1010.7 |
| 20260505093018 | 14 | 211 | 0.0 | 4.8 | 0.00 | 0.00 | 0.00 | 75 | 1010.7 |
| 20260505090009 | 14 | 179 | 1.6 | 6.4 | 0.00 | 0.00 | 0.00 | 75 | 1010.6 |
| 20260505084514 | 15 | 268 | 0.0 | 6.4 | 0.00 | 0.00 | 0.00 | 73 | 1010.7 |
| 20260505083017 | 15 | 264 | 1.6 | 6.4 | 0.00 | 0.00 | 0.00 | 72 | 1010.6 |
| 20260505081505 | 15 | 233 | 0.0 | 4.8 | 0.00 | 0.00 | 0.00 | 71 | 1010.7 |
| 20260505080008 | 15 | 256 | 1.6 | 11.3 | 0.00 | 0.00 | 0.00 | 71 | 1010.8 |
| 20260505074514 | 15 | 256 | 3.2 | 11.3 | 0.00 | 0.00 | 0.00 | 71 | 1010.8 |
| 20260505073020 | 15 | 268 | 1.6 | 20.9 | 0.00 | 0.00 | 0.00 | 70 | 1010.7 |
| 20260505071505 | 15 | 277 | 1.6 | 11.3 | 0.00 | 0.00 | 0.00 | 69 | 1010.7 |
| 20260505070016 | 15 | 246 | 3.2 | 11.3 | 0.00 | 0.00 | 0.00 | 70 | 1010.6 |
| 20260505064515 | 15 | 269 | 1.6 | 11.3 | 0.00 | 0.00 | 0.00 | 71 | 1010.5 |
| 20260505063017 | 14 | 266 | 3.2 | 6.4 | 0.00 | 0.00 | 0.00 | 71 | 1010.4 |
| 20260505061515 | 14 | 232 | 0.0 | 6.4 | 0.00 | 0.00 | 0.00 | 70 | 1010.6 |
| 20260505060017 | 15 | 261 | 0.0 | 3.2 | 0.00 | 0.00 | 0.00 | 69 | 1010.6 |
| 20260505054523 | 15 | 261 | 0.0 | 6.4 | 0.00 | 0.00 | 0.00 | 69 | 1010.7 |
| 20260505053022 | 15 | 221 | 0.0 | 3.2 | 0.00 | 0.00 | 0.00 | 69 | 1010.6 |
| 20260505051512 | 15 | 241 | 0.0 | 6.4 | 0.00 | 0.00 | 0.00 | 69 | 1010.8 |
| 20260505040019 | 15 | 203 | 1.6 | 8.0 | 0.00 | 0.00 | 0.00 | 61 | 1010.7 |
| 20260505030021 | 16 | 162 | 1.6 | 6.4 | 0.00 | 0.00 | 0.00 | 53 | 1011.0 |
| 20260505024526 | 16 | 171 | 1.6 | 8.0 | 0.00 | 0.00 | 0.00 | 52 | 1011.1 |
| 20260505023007 | 17 | 153 | 3.2 | 8.0 | 0.00 | 0.00 | 0.00 | 51 | 1011.2 |
| 20260505021514 | 17 | 148 | 1.6 | 9.7 | 0.00 | 0.00 | 0.00 | 50 | 1011.2 |
| 20260505020021 | 17 | 179 | 1.6 | 3.2 | 0.00 | 0.00 | 0.00 | 49 | 1011.0 |
| 20260505014526 | 18 | 184 | 0.0 | 4.8 | 0.00 | 0.00 | 0.00 | 48 | 1011.0 |
| 20260505013011 | 18 | 202 | 0.0 | 12.9 | 0.00 | 0.00 | 0.00 | 48 | 1011.1 |
| 20260505011524 | 18 | 195 | 0.0 | 8.0 | 0.00 | 0.00 | 0.00 | 48 | 1010.8 |
| 20260505010023 | 18 | 208 | 0.0 | 4.8 | 0.00 | 0.00 | 0.00 | 46 | 1010.7 |
| 20260505004533 | 18 | 191 | 0.0 | 0.0 | 0.00 | 0.00 | 0.00 | 45 | 1010.6 |
| 20260505003013 | 19 | 191 | 0.0 | 4.8 | 0.00 | 0.00 | 0.00 | 43 | 1010.4 |
| 20260505001520 | 19 | 232 | 1.6 | 6.4 | 0.00 | 0.00 | 0.00 | 42 | 1010.3 |
| 20260505000030 | 20 | 208 | 3.2 | 12.9 | 0.00 | 0.00 | 0.00 | 40 | 1010.3 |
| 20260504234522 | 20 | 243 | 3.2 | 12.9 | 0.00 | 0.00 | 0.00 | 39 | 1010.1 |
| 20260504233016 | 20 | 215 | 3.2 | 12.9 | 0.00 | 0.00 | 0.00 | 38 | 1010.0 |
| 20260504231524 | 20 | 238 | 4.8 | 22.5 | 0.00 | 0.00 | 0.00 | 38 | 1009.9 |
| 20260504230024 | 21 | 155 | 4.8 | 19.3 | 0.00 | 0.00 | 0.00 | 38 | 1009.8 |
| 20260504224528 | 21 | 273 | 4.8 | 17.7 | 0.00 | 0.00 | 0.00 | 37 | 1009.8 |
| 20260504223014 | 21 | 168 | 1.6 | 16.1 | 0.00 | 0.00 | 0.00 | 38 | 1009.9 |
| 20260504221526 | 21 | 274 | 3.2 | 17.7 | 0.00 | 0.00 | 0.00 | 36 | 1009.9 |
| 20260504214512 | 22 | 179 | 8.0 | 22.5 | 0.00 | 0.00 | 0.00 | 36 | 1010.0 |
| 20260504213040 | 22 | 266 | 4.8 | 17.7 | 0.00 | 0.00 | 0.00 | 35 | 1010.1 |
| 20260504211521 | 22 | 194 | 4.8 | 22.5 | 0.00 | 0.00 | 0.00 | 38 | 1010.1 |
| 20260504210012 | 22 | 200 | 11.3 | 27.4 | 0.00 | 0.00 | 0.00 | 36 | 1010.2 |
| 20260504204517 | 22 | 226 | 6.4 | 17.7 | 0.00 | 0.00 | 0.00 | 35 | 1010.3 |
| 20260504203020 | 22 | 275 | 6.4 | 16.1 | 0.00 | 0.00 | 0.00 | 36 | 1010.1 |
| 20260504201532 | 22 | 186 | 6.4 | 20.9 | 0.00 | 0.00 | 0.00 | 34 | 1010.2 |
| 20260504200015 | 22 | 213 | 8.0 | 17.7 | 0.00 | 0.00 | 0.00 | 35 | 1010.2 |
| 20260504194519 | 22 | 198 | 4.8 | 19.3 | 0.00 | 0.00 | 0.00 | 33 | 1010.4 |
| 20260504193024 | 22 | 228 | 3.2 | 17.7 | 0.00 | 0.00 | 0.00 | 36 | 1010.5 |
| 20260504191523 | 22 | 264 | 6.4 | 19.3 | 0.00 | 0.00 | 0.00 | 37 | 1010.7 |
| 20260504190014 | 22 | 211 | 8.0 | 17.7 | 0.00 | 0.00 | 0.00 | 36 | 1010.8 |
| 20260504184521 | 21 | 212 | 8.0 | 27.4 | 0.00 | 0.00 | 0.00 | 35 | 1011.0 |
| 20260504183027 | 21 | 238 | 8.0 | 24.1 | 0.00 | 0.00 | 0.00 | 37 | 1011.2 |
| 20260504181508 | 21 | 268 | 6.4 | 20.9 | 0.00 | 0.00 | 0.00 | 37 | 1011.4 |
| 20260504180018 | 21 | 194 | 9.7 | 25.7 | 0.00 | 0.00 | 0.00 | 38 | 1011.6 |
| 20260504171518 | 20 | 261 | 4.8 | 22.5 | 0.00 | 0.00 | 0.00 | 41 | 1012.1 |